When you browse on this site, cookies collect data to enhance your experience and personalize the content and advertising you see.
Visit our Privacy Policy to learn more. By continuing to use the site, you agree to this use of cookies and data.
  • în România
  • Lista ţărilor
  • Pe 7 zile
  • Temperatura apei
  • Meteo pe hartă
  • Widget-uri
  • user-avatar
    Intrare

    Meteo pe oră la Tarija

    Astăzi, 24 Ianuarie, Vineri

    Timp Temperatura Precipitaţii Vânt Presiune Umiditate
    00:00 +18°C° 0.2 mm 1 m/s 598 mmHg 94%
    01:00 +18°C° 0.2 mm 1 m/s 598 mmHg 93%
    02:00 +18°C° 0.2 mm 1 m/s 598 mmHg 93%
    03:00 +16°C° 0.1 mm 1 m/s 597 mmHg 93%
    04:00 +16°C° 0.1 mm 1 m/s 597 mmHg 93%
    05:00 +14°C° 0.1 mm 0 m/s 597 mmHg 93%
    06:00 +16°C° 0 mm 0 m/s 598 mmHg 88%
    07:00 +17°C° 0 mm 0 m/s 599 mmHg 82%
    08:00 +18°C° 0 mm 0 m/s 599 mmHg 77%
    09:00 +21°C° 0 mm 1 m/s 600 mmHg 68%
    10:00 +23°C° 0 mm 1 m/s 600 mmHg 58%
    11:00 +24°C° 0 mm 2 m/s 600 mmHg 49%
    12:00 +25°C° 0 mm 2 m/s 600 mmHg 46%
    13:00 +26°C° 0 mm 3 m/s 600 mmHg 42%
    14:00 +27°C° 0 mm 3 m/s 600 mmHg 39%
    15:00 +27°C° 0 mm 3 m/s 599 mmHg 42%
    16:00 +26°C° 0 mm 4 m/s 599 mmHg 46%
    17:00 +26°C° 0 mm 4 m/s 598 mmHg 49%
    18:00 +24°C° 0 mm 3 m/s 598 mmHg 57%
    19:00 +21°C° 0 mm 2 m/s 598 mmHg 65%
    20:00 +20°C° 0 mm 1 m/s 598 mmHg 74%
    21:00 +19°C° 0 mm 1 m/s 598 mmHg 77%
    22:00 +19°C° 0 mm 1 m/s 598 mmHg 80%
    23:00 +18°C° 0 mm 1 m/s 598 mmHg 83%

    Mâine, 25 Ianuarie, Sâmbătă

    Timp Temperatura Precipitaţii Vânt Presiune Umiditate
    00:00 +18°C° 0 mm 1 m/s 598 mmHg 83%
    01:00 +15°C° 0 mm 0 m/s 597 mmHg 83%
    02:00 +15°C° 0 mm 0 m/s 597 mmHg 83%
    03:00 +14°C° 0 mm 0 m/s 597 mmHg 84%
    04:00 +14°C° 0 mm 0 m/s 596 mmHg 84%
    05:00 +14°C° 0 mm 0 m/s 596 mmHg 84%
    06:00 +15°C° 0 mm 0 m/s 597 mmHg 75%
    07:00 +17°C° 0 mm 0 m/s 598 mmHg 66%
    08:00 +21°C° 0 mm 1 m/s 600 mmHg 58%
    09:00 +23°C° 0 mm 1 m/s 600 mmHg 50%
    10:00 +25°C° 0 mm 1 m/s 600 mmHg 42%
    11:00 +26°C° 0 mm 1 m/s 601 mmHg 35%
    12:00 +27°C° 0 mm 2 m/s 600 mmHg 33%
    13:00 +27°C° 0 mm 3 m/s 600 mmHg 31%
    14:00 +28°C° 0 mm 3 m/s 600 mmHg 29%
    15:00 +28°C° 0 mm 3 m/s 599 mmHg 32%
    16:00 +27°C° 0 mm 4 m/s 598 mmHg 35%
    17:00 +27°C° 0 mm 4 m/s 598 mmHg 37%
    18:00 +25°C° 0 mm 3 m/s 598 mmHg 47%
    19:00 +21°C° 0 mm 2 m/s 598 mmHg 56%
    20:00 +20°C° 0 mm 1 m/s 598 mmHg 66%
    21:00 +20°C° 0 mm 1 m/s 598 mmHg 67%
    22:00 +17°C° 0 mm 0 m/s 598 mmHg 67%
    23:00 +17°C° 0 mm 0 m/s 598 mmHg 68%

    Poimâine, 26 Ianuarie, Duminică

    Timp Temperatura Precipitaţii Vânt Presiune Umiditate
    00:00 +17°C° 0 mm 0 m/s 598 mmHg 68%
    01:00 +16°C° 0 mm 0 m/s 597 mmHg 69%
    02:00 +16°C° 0 mm 0 m/s 597 mmHg 69%
    03:00 +16°C° 0 mm 0 m/s 597 mmHg 69%
    04:00 +15°C° 0 mm 0 m/s 597 mmHg 70%
    05:00 +15°C° 0 mm 0 m/s 597 mmHg 70%
    06:00 +17°C° 0 mm 0 m/s 598 mmHg 64%
    07:00 +18°C° 0 mm 0 m/s 599 mmHg 58%
    08:00 +20°C° 0 mm 0 m/s 600 mmHg 52%
    09:00 +23°C° 0 mm 1 m/s 600 mmHg 47%
    10:00 +25°C° 0 mm 1 m/s 600 mmHg 42%
    11:00 +26°C° 0 mm 1 m/s 600 mmHg 38%
    12:00 +27°C° 0 mm 2 m/s 600 mmHg 37%
    13:00 +28°C° 0 mm 2 m/s 600 mmHg 36%
    14:00 +28°C° 0 mm 3 m/s 599 mmHg 35%
    15:00 +28°C° 0 mm 3 m/s 599 mmHg 36%
    16:00 +28°C° 0 mm 4 m/s 598 mmHg 38%
    17:00 +27°C° 0 mm 4 m/s 597 mmHg 40%
    18:00 +25°C° 0 mm 3 m/s 598 mmHg 46%
    19:00 +24°C° 0 mm 2 m/s 598 mmHg 52%
    20:00 +22°C° 0 mm 1 m/s 598 mmHg 58%
    21:00 +21°C° 0 mm 1 m/s 598 mmHg 58%
    22:00 +21°C° 0 mm 1 m/s 598 mmHg 59%
    23:00 +20°C° 0 mm 1 m/s 598 mmHg 60%

    27 Ianuarie, Luni

    Timp Temperatura Precipitaţii Vânt Presiune Umiditate
    00:00 +20°C° 0 mm 1 m/s 598 mmHg 61%
    01:00 +17°C° 0 mm 0 m/s 597 mmHg 62%
    02:00 +17°C° 0 mm 0 m/s 597 mmHg 64%
    03:00 +19°C° 0 mm 1 m/s 597 mmHg 64%
    04:00 +18°C° 0 mm 1 m/s 597 mmHg 64%
    05:00 +18°C° 0 mm 1 m/s 597 mmHg 64%
    06:00 +19°C° 0 mm 1 m/s 598 mmHg 60%
    07:00 +21°C° 0 mm 1 m/s 599 mmHg 56%
    08:00 +22°C° 0 mm 1 m/s 600 mmHg 53%
    09:00 +23°C° 0 mm 1 m/s 600 mmHg 51%
    10:00 +24°C° 0 mm 1 m/s 601 mmHg 49%
    11:00 +25°C° 0 mm 2 m/s 601 mmHg 47%
    12:00 +25°C° 0.1 mm 2 m/s 600 mmHg 50%
    13:00 +25°C° 0.1 mm 3 m/s 600 mmHg 53%
    14:00 +23°C° 0.1 mm 4 m/s 599 mmHg 56%
    15:00 +24°C° 0.1 mm 3 m/s 599 mmHg 59%
    16:00 +22°C° 0.1 mm 3 m/s 598 mmHg 63%
    17:00 +21°C° 0.1 mm 3 m/s 597 mmHg 67%
    18:00 +21°C° 0.1 mm 2 m/s 598 mmHg 71%
    19:00 +20°C° 0.1 mm 2 m/s 598 mmHg 74%
    20:00 +20°C° 0.1 mm 1 m/s 598 mmHg 78%
    21:00 +20°C° 0.2 mm 1 m/s 598 mmHg 80%
    22:00 +20°C° 0.2 mm 1 m/s 599 mmHg 81%
    23:00 +19°C° 0.2 mm 1 m/s 599 mmHg 83%

    28 Ianuarie, Marţi

    Timp Temperatura Precipitaţii Vânt Presiune Umiditate
    00:00 +19°C° 0.1 mm 1 m/s 598 mmHg 84%
    01:00 +19°C° 0.1 mm 1 m/s 598 mmHg 85%
    02:00 +17°C° 0.1 mm 0 m/s 598 mmHg 86%
    03:00 +16°C° 0 mm 0 m/s 597 mmHg 87%
    04:00 +16°C° 0 mm 0 m/s 597 mmHg 88%
    05:00 +18°C° 0 mm 1 m/s 597 mmHg 90%
    06:00 +19°C° 0 mm 1 m/s 597 mmHg 86%
    07:00 +19°C° 0 mm 1 m/s 598 mmHg 82%
    08:00 +20°C° 0 mm 1 m/s 598 mmHg 78%
    09:00 +21°C° 0.1 mm 2 m/s 598 mmHg 72%
    10:00 +23°C° 0.1 mm 2 m/s 598 mmHg 65%
    11:00 +25°C° 0.1 mm 3 m/s 599 mmHg 59%
    12:00 +26°C° 0.6 mm 3 m/s 598 mmHg 59%
    13:00 +26°C° 0.6 mm 3 m/s 597 mmHg 59%
    14:00 +26°C° 0.6 mm 3 m/s 596 mmHg 59%
    15:00 +26°C° 1.3 mm 3 m/s 596 mmHg 63%
    16:00 +25°C° 1.3 mm 3 m/s 595 mmHg 68%
    17:00 +24°C° 1.3 mm 3 m/s 594 mmHg 72%
    18:00 +23°C° 1.4 mm 2 m/s 594 mmHg 78%
    19:00 +21°C° 1.4 mm 2 m/s 594 mmHg 84%
    20:00 +20°C° 1.4 mm 1 m/s 594 mmHg 89%
    21:00 +20°C° 0.6 mm 1 m/s 594 mmHg 90%
    22:00 +20°C° 0.6 mm 1 m/s 595 mmHg 90%
    23:00 +18°C° 0.6 mm 0 m/s 595 mmHg 91%

    29 Ianuarie, Miercuri

    Timp Temperatura Precipitaţii Vânt Presiune Umiditate
    00:00 +18°C° 0.7 mm 0 m/s 595 mmHg 91%
    01:00 +18°C° 0.7 mm 0 m/s 594 mmHg 91%
    02:00 +19°C° 0.7 mm 1 m/s 594 mmHg 91%
    03:00 +19°C° 1 mm 1 m/s 594 mmHg 91%
    04:00 +19°C° 1 mm 1 m/s 593 mmHg 91%
    05:00 +18°C° 1 mm 1 m/s 593 mmHg 91%
    06:00 +19°C° 0 mm 1 m/s 594 mmHg 86%
    07:00 +21°C° 0 mm 1 m/s 595 mmHg 82%
    08:00 +22°C° 0 mm 1 m/s 595 mmHg 77%
    09:00 +23°C° 0.2 mm 1 m/s 596 mmHg 70%
    10:00 +25°C° 0.2 mm 1 m/s 596 mmHg 64%
    11:00 +26°C° 0.2 mm 1 m/s 597 mmHg 57%
    12:00 +27°C° 0.8 mm 2 m/s 596 mmHg 58%
    13:00 +27°C° 0.8 mm 3 m/s 595 mmHg 59%
    14:00 +27°C° 0.8 mm 3 m/s 595 mmHg 59%
    15:00 +26°C° 2.4 mm 3 m/s 594 mmHg 65%
    16:00 +25°C° 2.4 mm 3 m/s 594 mmHg 71%
    17:00 +24°C° 2.4 mm 2 m/s 593 mmHg 76%
    18:00 +23°C° 2.3 mm 2 m/s 593 mmHg 80%
    19:00 +21°C° 2.3 mm 2 m/s 593 mmHg 84%
    20:00 +21°C° 2.3 mm 1 m/s 594 mmHg 88%
    21:00 +21°C° 0.5 mm 1 m/s 594 mmHg 89%
    22:00 +20°C° 0.5 mm 1 m/s 595 mmHg 89%
    23:00 +20°C° 0.5 mm 1 m/s 595 mmHg 89%
    Arată mai mult